�������l�o���
Date,Time,MP-1(��Sv/h),MP-2(��Sv/h),MP-3(��Sv/h),MP-4(��Sv/h),MP-5(��Sv/h),MP-6(��Sv/h),MP-7(��Sv/h),MP-8(��Sv/h),����,����(m/s),���J
2019/02/04,00:00,0.780,1.150,0.809,1.491,1.061,0.450,0.797,0.747,��쐼,2.9,��
2019/02/04,00:10,0.781,1.152,0.810,1.490,1.062,0.450,0.796,0.752,��,3.0,��
2019/02/04,00:20,0.780,1.151,0.807,1.491,1.059,0.451,0.796,0.750,��,2.6,��
2019/02/04,00:30,0.780,1.153,0.809,1.490,1.060,0.449,0.796,0.750,��,2.2,��
2019/02/04,00:40,0.781,1.152,0.810,1.489,1.060,0.449,0.796,0.752,��쓌,1.5,��
2019/02/04,00:50,0.780,1.150,0.810,1.493,1.061,0.450,0.794,0.751,��쓌,3.8,��
2019/02/04,01:00,0.780,1.151,0.809,1.491,1.061,0.450,0.795,0.751,��쓌,5.9,��
2019/02/04,01:10,0.780,1.150,0.810,1.493,1.061,0.450,0.796,0.751,��,6.3,��
2019/02/04,01:20,0.783,1.149,0.810,1.491,1.063,0.449,0.796,0.751,��,6.7,��
2019/02/04,01:30,0.781,1.152,0.809,1.491,1.061,0.450,0.796,0.751,��,5.6,��
2019/02/04,01:40,0.780,1.151,0.810,1.491,1.059,0.449,0.797,0.752,��쐼,4.6,��
2019/02/04,01:50,0.782,1.149,0.806,1.491,1.060,0.449,0.796,0.752,��,6.2,��
2019/02/04,02:00,0.780,1.152,0.810,1.491,1.063,0.449,0.796,0.752,��,5.9,��
2019/02/04,02:10,0.781,1.155,0.809,1.492,1.061,0.449,0.795,0.752,��,5.9,��
2019/02/04,02:20,0.781,1.151,0.810,1.488,1.063,0.449,0.797,0.752,��,9.1,��
2019/02/04,02:30,0.780,1.151,0.809,1.492,1.061,0.451,0.798,0.751,��쐼,7.5,��
2019/02/04,02:40,0.780,1.153,0.809,1.492,1.061,0.451,0.797,0.754,��쐼,6.6,��
2019/02/04,02:50,0.780,1.150,0.811,1.491,1.061,0.451,0.797,0.751,��,6.6,��
2019/02/04,03:00,0.783,1.150,0.810,1.490,1.059,0.450,0.797,0.752,��쐼,6.5,��
2019/02/04,03:10,0.783,1.150,0.811,1.491,1.062,0.451,0.797,0.752,��쐼,7.8,��
2019/02/04,03:20,0.783,1.152,0.813,1.492,1.059,0.451,0.797,0.752,��쐼,8.1,��
2019/02/04,03:30,0.781,1.154,0.810,1.493,1.062,0.451,0.799,0.752,��,7.8,��
2019/02/04,03:40,0.780,1.151,0.812,1.492,1.064,0.451,0.798,0.751,��,6.3,��
2019/02/04,03:50,0.783,1.152,0.811,1.492,1.062,0.451,0.798,0.752,��,5.6,��
2019/02/04,04:00,0.783,1.154,0.810,1.491,1.063,0.451,0.799,0.753,��,4.6,��
2019/02/04,04:10,0.782,1.151,0.811,1.491,1.061,0.451,0.798,0.752,��,5.0,��
2019/02/04,04:20,0.782,1.152,0.812,1.493,1.063,0.452,0.799,0.750,��쐼,5.0,��
2019/02/04,04:30,0.782,1.153,0.812,1.492,1.064,0.451,0.799,0.753,��쐼,4.8,��
2019/02/04,04:40,0.783,1.152,0.811,1.493,1.061,0.452,0.799,0.752,��쐼,4.9,��
2019/02/04,04:50,0.785,1.150,0.811,1.493,1.063,0.453,0.798,0.752,��쐼,6.0,��
2019/02/04,05:00,0.784,1.153,0.812,1.492,1.065,0.452,0.799,0.754,��쐼,6.5,��
2019/02/04,05:10,0.785,1.153,0.811,1.495,1.063,0.452,0.798,0.754,�쐼,5.5,��
2019/02/04,05:20,0.786,1.154,0.811,1.493,1.064,0.452,0.798,0.752,��,6.4,��
2019/02/04,05:30,0.783,1.152,0.812,1.492,1.064,0.451,0.799,0.753,��,8.3,��
2019/02/04,05:40,0.782,1.152,0.812,1.493,1.065,0.450,0.799,0.752,��,8.0,��
2019/02/04,05:50,0.784,1.153,0.812,1.490,1.066,0.451,0.798,0.754,��,8.2,��
2019/02/04,06:00,0.784,1.153,0.812,1.492,1.064,0.450,0.800,0.754,��,6.6,��
2019/02/04,06:10,0.783,1.153,0.813,1.496,1.065,0.453,0.797,0.755,�쐼,4.8,��
2019/02/04,06:20,0.783,1.154,0.810,1.492,1.066,0.451,0.798,0.752,���쐼,2.9,��
2019/02/04,06:30,0.783,1.155,0.813,1.496,1.064,0.453,0.798,0.754,�k�k��,2.0,��
2019/02/04,06:40,0.784,1.152,0.810,1.494,1.065,0.452,0.796,0.753,���k��,3.2,��
2019/02/04,06:50,0.784,1.152,0.814,1.495,1.064,0.452,0.795,0.752,��,10.9,��
2019/02/04,07:00,0.784,1.154,0.813,1.495,1.067,0.451,0.798,0.753,��,11.3,�L
2019/02/04,07:10,0.784,1.154,0.812,1.495,1.067,0.453,0.797,0.754,��,14.9,�L
2019/02/04,07:20,0.785,1.153,0.813,1.495,1.067,0.453,0.798,0.755,��,20.9,��
2019/02/04,07:30,0.785,1.155,0.812,1.497,1.068,0.453,0.797,0.756,��,14.9,��
2019/02/04,07:40,0.785,1.155,0.809,1.496,1.065,0.453,0.797,0.755,��,14.2,��
2019/02/04,07:50,0.785,1.155,0.813,1.498,1.066,0.452,0.797,0.756,��,14.9,��
2019/02/04,08:00,0.784,1.155,0.813,1.497,1.067,0.453,0.797,0.754,��,20.5,��
2019/02/04,08:10,0.784,1.155,0.814,1.498,1.069,0.452,0.798,0.754,���k��,17.5,��
2019/02/04,08:20,0.786,1.155,0.812,1.494,1.067,0.454,0.796,0.756,-,CALM,��
2019/02/04,08:30,0.784,1.154,0.810,1.499,1.067,0.454,0.796,0.755,��,18.3,��
2019/02/04,08:40,0.785,1.159,0.812,1.497,1.067,0.453,0.797,0.756,��,18.7,��
2019/02/04,08:50,0.787,1.154,0.811,1.497,1.069,0.453,0.797,0.755,��,13.9,��
2019/02/04,09:00,0.785,1.155,0.813,1.495,1.067,0.452,0.798,0.755,��,17.4,��
2019/02/04,09:10,0.785,1.155,0.812,1.496,1.065,0.453,0.801,0.754,��,14.7,��
2019/02/04,09:20,0.785,1.154,0.809,1.499,1.070,0.453,0.799,0.756,��,19.7,�L
2019/02/04,09:30,0.785,1.156,0.809,1.498,1.067,0.452,0.798,0.755,��,15.7,��
2019/02/04,09:40,0.786,1.158,0.810,1.496,1.068,0.452,0.798,0.755,��,17.2,��
2019/02/04,09:50,0.786,1.155,0.811,1.497,1.068,0.451,0.796,0.754,��,16.3,��
2019/02/04,10:00,0.786,1.156,0.809,1.498,1.068,0.452,0.796,0.756,��,14.1,��
2019/02/04,10:10,0.786,1.156,0.809,1.494,1.069,0.453,0.798,0.753,��,12.1,��
2019/02/04,10:20,0.786,1.156,0.808,1.494,1.067,0.450,0.799,0.755,���k��,12.7,��
2019/02/04,10:30,0.785,1.156,0.809,1.496,1.068,0.451,0.797,0.755,��,15.8,��
2019/02/04,10:40,0.784,1.157,0.809,1.498,1.070,0.451,0.798,0.756,��,15.7,��
2019/02/04,10:50,0.784,1.157,0.808,1.495,1.068,0.452,0.797,0.756,���k��,13.8,��
2019/02/04,11:00,0.785,1.157,0.809,1.496,1.070,0.452,0.798,0.756,��,17.8,��
2019/02/04,11:10,0.785,1.157,0.807,1.497,1.068,0.451,0.798,0.755,��,13.1,��
2019/02/04,11:20,0.785,1.157,0.808,1.496,1.070,0.450,0.800,0.757,��,15.1,��
2019/02/04,11:30,0.785,1.157,0.807,1.498,1.072,0.449,0.798,0.753,���k��,11.9,��
2019/02/04,11:40,0.784,1.157,0.809,1.496,1.071,0.451,0.797,0.756,��,12.9,��
2019/02/04,11:50,0.786,1.158,0.810,1.496,1.070,0.449,0.798,0.755,���k��,14.8,��
2019/02/04,12:00,0.786,1.160,0.809,1.500,1.068,0.451,0.798,0.756,���k��,14.4,��
2019/02/04,12:10,0.783,1.160,0.807,1.500,1.071,0.450,0.797,0.756,���k��,15.9,��
2019/02/04,12:20,0.786,1.157,0.808,1.497,1.072,0.451,0.798,0.758,��,17.0,��
2019/02/04,12:30,0.786,1.162,0.809,1.498,1.072,0.452,0.798,0.756,���k��,18.0,��
2019/02/04,12:40,0.784,1.160,0.808,1.498,1.072,0.453,0.797,0.756,���k��,18.6,��
2019/02/04,12:50,0.786,1.160,0.807,1.498,1.072,0.452,0.800,0.755,���k��,14.3,��
2019/02/04,13:00,0.785,1.157,0.809,1.499,1.069,0.450,0.799,0.754,���k��,15.5,�L
2019/02/04,13:10,0.784,1.158,0.806,1.499,1.070,0.451,0.800,0.753,���k��,14.9,�L
2019/02/04,13:20,0.786,1.158,0.808,1.500,1.071,0.451,0.798,0.752,���k��,11.6,�L
2019/02/04,13:30,0.786,1.160,0.808,1.500,1.072,0.450,0.797,0.752,���k��,11.8,��
2019/02/04,13:40,0.785,1.160,0.808,1.499,1.071,0.452,0.797,0.752,��,14.1,��
2019/02/04,13:50,0.786,1.159,0.808,1.498,1.071,0.451,0.798,0.753,���k��,11.5,��
2019/02/04,14:00,0.787,1.161,0.805,1.499,1.070,0.451,0.797,0.751,��,13.5,��
2019/02/04,14:10,0.786,1.159,0.808,1.497,1.072,0.452,0.798,0.752,���k��,14.6,��
2019/02/04,14:20,0.785,1.161,0.808,1.500,1.073,0.451,0.798,0.751,��,12.8,��
2019/02/04,14:30,0.785,1.160,0.809,1.498,1.073,0.452,0.796,0.751,���k��,13.5,��
2019/02/04,14:40,0.785,1.160,0.809,1.497,1.072,0.452,0.799,0.751,���k��,13.9,��
2019/02/04,14:50,0.786,1.161,0.808,1.498,1.073,0.450,0.797,0.750,��,14.1,��
2019/02/04,15:00,0.787,1.160,0.807,1.498,1.072,0.451,0.797,0.752,��,13.5,��
2019/02/04,15:10,0.785,1.159,0.807,1.498,1.073,0.451,0.798,0.753,���k��,13.3,�L
2019/02/04,15:20,0.785,1.161,0.806,1.498,1.071,0.450,0.796,0.752,���k��,14.6,�L
2019/02/04,15:30,0.785,1.161,0.806,1.499,1.073,0.452,0.796,0.753,���k��,14.2,��
2019/02/04,15:40,0.785,1.166,0.808,1.499,1.072,0.450,0.796,0.753,���k��,14.7,��
2019/02/04,15:50,0.786,1.165,0.808,1.499,1.073,0.451,0.798,0.754,��,12.8,��
2019/02/04,16:00,0.783,1.166,0.807,1.501,1.073,0.451,0.796,0.754,���k��,15.2,��
2019/02/04,16:10,0.786,1.169,0.807,1.502,1.073,0.451,0.796,0.756,���k��,14.7,��
2019/02/04,16:20,0.786,1.168,0.808,1.499,1.074,0.450,0.799,0.756,���k��,15.7,��
2019/02/04,16:30,0.786,1.166,0.809,1.499,1.074,0.451,0.797,0.754,���k��,13.5,��
2019/02/04,16:40,0.788,1.167,0.807,1.501,1.073,0.450,0.798,0.754,���k��,13.5,��
2019/02/04,16:50,0.787,1.169,0.806,1.497,1.073,0.450,0.797,0.756,���k��,12.0,��
2019/02/04,17:00,0.786,1.168,0.808,1.499,1.073,0.449,0.796,0.755,���k��,12.5,��
2019/02/04,17:10,0.785,1.167,0.808,1.498,1.077,0.451,0.799,0.753,���k��,11.1,��
2019/02/04,17:20,0.785,1.168,0.807,1.500,1.075,0.449,0.797,0.753,���k��,13.5,��
2019/02/04,17:30,0.786,1.169,0.809,1.499,1.075,0.451,0.798,0.755,�k��,10.6,��
2019/02/04,17:40,0.787,1.170,0.807,1.501,1.075,0.450,0.799,0.753,�k��,10.2,��
2019/02/04,17:50,0.785,1.167,0.808,1.500,1.076,0.449,0.798,0.752,���k��,9.1,��
2019/02/04,18:00,0.787,1.167,0.807,1.499,1.076,0.449,0.798,0.754,�k��,6.3,��
2019/02/04,18:10,0.788,1.168,0.807,1.495,1.075,0.449,0.797,0.754,���k��,11.7,��
2019/02/04,18:20,0.783,1.168,0.807,1.498,1.077,0.448,0.799,0.754,�k��,6.8,��
2019/02/04,18:30,0.786,1.167,0.805,1.499,1.075,0.450,0.799,0.753,�k��,7.1,��
2019/02/04,18:40,0.784,1.168,0.804,1.498,1.075,0.448,0.797,0.753,�k�k��,5.8,��
2019/02/04,18:50,0.784,1.167,0.806,1.495,1.074,0.449,0.797,0.754,�k,5.8,��
2019/02/04,19:00,0.786,1.165,0.807,1.499,1.076,0.447,0.797,0.751,�k,6.0,��
2019/02/04,19:10,0.784,1.169,0.807,1.499,1.076,0.447,0.796,0.752,�k,7.7,��
2019/02/04,19:20,0.785,1.166,0.808,1.498,1.075,0.448,0.796,0.755,�k�k��,9.0,��
2019/02/04,19:30,0.785,1.168,0.806,1.499,1.077,0.447,0.797,0.752,�k�k��,9.2,��
2019/02/04,19:40,0.783,1.168,0.807,1.500,1.074,0.447,0.795,0.753,�k,8.1,��
2019/02/04,19:50,0.786,1.166,0.806,1.500,1.074,0.447,0.796,0.752,�k,8.3,��
2019/02/04,20:00,0.784,1.166,0.805,1.497,1.076,0.444,0.795,0.752,�k�k��,9.0,��
2019/02/04,20:10,0.782,1.165,0.805,1.495,1.074,0.445,0.795,0.752,�k�k��,8.0,��
2019/02/04,20:20,0.783,1.168,0.806,1.495,1.076,0.444,0.794,0.753,�k�k��,9.0,��
2019/02/04,20:30,0.784,1.163,0.806,1.494,1.073,0.445,0.796,0.752,�k�k��,9.9,��
2019/02/04,20:40,0.783,1.164,0.806,1.497,1.074,0.445,0.795,0.752,�k�k��,7.3,��
2019/02/04,20:50,0.780,1.166,0.805,1.495,1.077,0.444,0.797,0.753,�k�k��,7.8,��
2019/02/04,21:00,0.783,1.165,0.805,1.496,1.074,0.445,0.795,0.752,�k�k��,8.1,��
2019/02/04,21:10,0.782,1.165,0.805,1.496,1.073,0.445,0.796,0.752,�k�k��,6.1,��
2019/02/04,21:20,0.785,1.164,0.804,1.498,1.074,0.446,0.795,0.753,�k�k��,5.9,��
2019/02/04,21:30,0.782,1.164,0.804,1.496,1.072,0.445,0.794,0.753,�k�k��,5.0,��
2019/02/04,21:40,0.781,1.166,0.805,1.494,1.073,0.445,0.795,0.750,�k�k��,4.5,��
2019/02/04,21:50,0.782,1.165,0.806,1.497,1.073,0.445,0.795,0.751,�k�k��,4.6,��
2019/02/04,22:00,0.783,1.166,0.805,1.496,1.074,0.444,0.795,0.750,�k�k��,4.4,��
2019/02/04,22:10,0.781,1.165,0.805,1.499,1.074,0.445,0.794,0.752,�k�k��,4.5,��
2019/02/04,22:20,0.782,1.166,0.805,1.497,1.074,0.445,0.795,0.752,�k��,5.0,��
2019/02/04,22:30,0.783,1.163,0.805,1.497,1.071,0.444,0.794,0.752,�k��,4.1,��
2019/02/04,22:40,0.784,1.165,0.805,1.495,1.072,0.446,0.794,0.752,�k��,4.6,��
2019/02/04,22:50,0.782,1.166,0.805,1.498,1.074,0.446,0.794,0.751,�k��,4.4,��
2019/02/04,23:00,0.781,1.165,0.804,1.497,1.073,0.444,0.795,0.751,�k�k��,4.4,��
2019/02/04,23:10,0.783,1.165,0.806,1.498,1.074,0.445,0.794,0.751,�k�k��,4.9,��
2019/02/04,23:20,0.781,1.166,0.804,1.498,1.073,0.445,0.795,0.750,�k�k��,6.0,��
2019/02/04,23:30,0.781,1.164,0.807,1.495,1.074,0.443,0.793,0.752,�k�k��,5.5,��
2019/02/04,23:40,0.782,1.165,0.804,1.494,1.073,0.444,0.794,0.752,�k�k��,5.8,��
2019/02/04,23:50,0.781,1.164,0.808,1.497,1.073,0.445,0.794,0.752,�k�k��,6.1,��
